Location: Clatteringshaws Loch
(55.0508°N, 4.2860°W)
Time: 07:39:01
(UTC+00:00)

SR - Visible Passes

Search period start: 28 February 2017 00:00
Search period end: 10 March 2017 00:00
Orbit: 574 x 883 km, 66.7° (Epoch: 27 February)

Date Brightness Start Highest point End Pass type
(mag) Time Alt. Az. Time Alt. Az. Time Alt. Az.
28 Feb ? 03:27:37 17° SE 03:27:37 17° SE 03:28:56 10° SE visible
28 Feb ? 05:07:11 19° SSW 05:07:11 19° SSW 05:09:17 10° SSW visible
28 Feb ? 19:35:37 10° SSW 19:40:39 57° ESE 19:46:11 10° NE visible
28 Feb ? 21:17:54 10° WSW 21:23:01 45° NNW 21:25:41 27° NNE visible
28 Feb ? 23:01:49 10° WNW 23:05:10 24° NNW 23:05:10 24° NNW visible
01 Mar ? 18:46:50 10° S 18:51:29 35° ESE 18:56:30 10° NE visible
01 Mar ? 20:28:07 10° WSW 20:33:22 64° NW 20:38:23 14° NE visible
01 Mar ? 22:11:44 10° WNW 22:16:32 30° NNW 22:17:51 27° N visible
01 Mar ? 23:55:30 10° NW 23:57:19 18° NW 23:57:19 18° NW visible
02 Mar ? 19:38:37 10° SW 19:43:51 87° SE 19:49:35 10° NE visible
02 Mar ? 21:21:39 10° W 21:26:38 36° NNW 21:30:17 18° NNE visible
02 Mar ? 23:05:37 10° NW 23:09:45 25° N 23:09:45 25° N visible
03 Mar ? 00:48:39 10° NW 00:49:12 13° NW 00:49:12 13° NW visible
03 Mar ? 18:49:27 10° SSW 18:54:31 56° ESE 19:00:03 10° NE visible
03 Mar ? 20:31:42 10° WSW 20:36:51 46° NNW 20:42:26 10° NE visible
03 Mar ? 22:15:36 10° WNW 22:20:18 27° N 22:22:00 23° NNE visible
03 Mar ? 23:59:03 10° NW 00:01:27 21° NNW 00:01:27 21° NNW visible
04 Mar ? 19:41:56 10° SW 19:47:12 65° NW 19:52:57 10° NE visible
04 Mar ? 21:25:30 10° WNW 21:30:21 30° NNW 21:34:08 16° NE visible
04 Mar ? 23:09:19 10° NW 23:13:34 26° N 23:13:34 26° N visible
05 Mar ? 00:51:59 10° NW 00:53:00 15° NW 00:53:00 15° NW visible
05 Mar ? 18:52:26 10° SW 18:57:42 85° SE 19:03:27 10° NE visible
05 Mar ? 20:35:26 10° W 20:40:28 36° NNW 20:45:50 10° NE visible
05 Mar ? 22:19:25 10° WNW 22:24:07 26° N 22:25:37 23° NNE visible
06 Mar ? 00:02:29 10° NW 00:05:03 23° NNW 00:05:03 23° NNW visible
06 Mar ? 19:45:29 10° WSW 19:50:41 48° NW 19:56:18 10° NE visible
06 Mar ? 21:29:23 10° WNW 21:34:07 27° N 21:37:37 16° NE visible
06 Mar ? 23:12:52 10° NW 23:17:02 28° N 23:17:02 28° N visible
07 Mar ? 00:55:18 10° NW 00:56:28 16° NW 00:56:28 16° NW visible
07 Mar ? 18:55:44 10° SW 19:01:02 67° NW 19:06:48 10° NE visible
07 Mar ? 20:39:17 10° W 20:44:09 30° NNW 20:49:18 10° NE visible
07 Mar ? 22:23:06 10° NW 22:27:56 27° N 22:28:59 25° NNE visible
08 Mar ? 00:05:50 10° NW 00:08:25 25° NNW 00:08:25 25° NNW visible
08 Mar ? 19:49:12 10° W 19:54:17 37° NNW 19:59:41 10° NE visible
08 Mar ? 21:33:12 10° WNW 21:37:56 26° N 21:40:54 18° NE visible
08 Mar ? 23:16:19 10° NW 23:20:20 31° N 23:20:20 31° N visible
09 Mar ? 00:58:35 10° NW 00:59:45 16° NW 00:59:45 16° NW visible
09 Mar ? 18:59:16 10° WSW 19:04:31 49° NW 19:10:09 10° NE visible
09 Mar ? 20:43:10 10° WNW 20:47:56 27° N 20:52:49 10° NE visible
09 Mar ? 22:26:41 10° NW 22:31:43 29° NNE 22:32:14 29° NNE visible
